VA3PPY Weather Reports


time (UTC)temp
C
wind
direction
speed
KPH
gust
KPH
rain 1hr
cm
rain 24hr
cm
rain mn
cm
humidity
%
barometer
mb
20260903003018 21 302 0.0 0.0 0.00 0.36 0.36 95 1010.8
20260903001520 21 302 0.0 0.0 0.00 0.36 0.36 95 1010.5
20260903000018 21 302 0.0 0.0 0.03 0.36 0.36 95 1010.2
20260902234517 21 302 0.0 0.0 0.05 0.36 0.36 95 1010.2
20260902233018 21 302 0.0 0.0 0.05 0.36 0.36 94 1010.9
20260902231519 21 302 0.0 3.2 0.05 0.36 0.36 94 1011.0
20260902230018 21 302 0.0 6.4 0.03 0.33 0.33 94 1010.5
20260902224518 21 34 0.0 1.6 0.00 0.30 0.30 93 1011.1
20260902223019 21 34 0.0 0.0 0.00 0.30 0.30 93 1010.7
20260902221519 21 34 0.0 3.2 0.30 0.30 0.30 93 1010.0
20260902220018 21 34 0.0 1.6 0.30 0.30 0.30 93 1010.3
20260902214526 20 34 0.0 4.8 0.30 0.30 0.30 92 1010.7
20260902213018 20 359 0.0 11.3 0.30 0.30 0.30 89 1009.8
20260902211519 21 309 4.8 20.9 0.00 0.00 0.00 86 1010.7
20260902210031 22 84 9.7 51.5 0.00 0.00 0.00 75 1010.6
20260902204519 31 133 0.0 1.6 0.00 0.00 0.00 71 1009.9
20260902203018 32 159 3.2 19.3 0.00 0.00 0.00 65 1009.1
20260902201550 32 355 1.6 8.0 0.00 0.00 0.00 66 1009.4
20260902200051 32 171 0.0 4.8 0.00 0.00 0.00 67 1009.5
20260902194551 32 136 1.6 9.7 0.00 0.00 0.00 70 1009.7
20260902193051 31 129 3.2 12.9 0.00 0.00 0.00 70 1010.0
20260902191555 32 297 1.6 9.7 0.00 0.00 0.00 72 1010.2
20260902190055 32 167 3.2 12.9 0.00 0.00 0.00 71 1010.2
20260902184609 31 193 1.6 8.0 0.00 0.00 0.00 72 1010.3
20260902183100 30 290 0.0 6.4 0.00 0.00 0.00 73 1010.4
20260902181551 30 290 1.6 4.8 0.00 0.00 0.00 73 1010.5
20260902180051 30 290 0.0 4.8 0.00 0.00 0.00 74 1010.6
20260902174551 30 290 0.0 4.8 0.00 0.00 0.00 73 1011.0
20260902173051 30 290 0.0 6.4 0.00 0.00 0.00 73 1011.5
20260902171551 30 290 0.0 4.8 0.00 0.00 0.00 74 1011.9
20260902170053 27 290 1.6 4.8 0.00 0.00 0.00 78 1012.3
20260902164551 27 274 1.6 4.8 0.00 0.00 0.00 78 1012.6
20260902163058 29 274 0.0 4.8 0.00 0.00 0.00 73 1012.2
20260902161551 29 158 0.0 6.4 0.00 0.00 0.00 74 1012.4
20260902160054 28 154 0.0 6.4 0.00 0.00 0.00 78 1012.3
20260902154551 28 240 0.0 3.2 0.00 0.00 0.00 80 1012.3
20260902153052 28 240 0.0 3.2 0.00 0.00 0.00 80 1012.3
20260902151600 28 290 0.0 6.4 0.00 0.00 0.00 81 1012.1
20260902150052 28 131 0.0 9.7 0.00 0.00 0.00 82 1011.9
20260902144551 27 143 1.6 8.0 0.00 0.00 0.00 85 1012.1
20260902143056 27 163 0.0 6.4 0.00 0.00 0.00 87 1012.2
20260902141551 26 155 0.0 12.9 0.00 0.00 0.00 89 1012.2
20260902140052 26 142 1.6 6.4 0.00 0.00 0.00 90 1012.2
20260902134604 25 164 0.0 9.7 0.00 0.00 0.00 92 1012.1
20260902133056 25 162 1.6 6.4 0.00 0.00 0.00 92 1012.1
20260902131552 25 162 0.0 4.8 0.00 0.00 0.00 93 1012.0
20260902130057 24 162 1.6 6.4 0.00 0.00 0.00 93 1012.1
20260902124556 24 162 0.0 1.6 0.00 0.00 0.00 93 1011.7
20260902123052 24 162 0.0 4.8 0.00 0.00 0.00 93 1011.7
20260902121556 24 162 0.0 4.8 0.00 0.00 0.00 92 1011.8
20260902120052 24 162 1.6 6.4 0.00 0.00 0.00 92 1011.6
20260902114557 24 162 1.6 6.4 0.00 0.00 0.00 92 1011.8
20260902113058 24 162 0.0 6.4 0.00 0.00 0.00 91 1012.0
20260902111552 23 165 0.0 0.0 0.00 0.00 0.00 91 1011.9
20260902110052 23 165 0.0 0.0 0.00 0.00 0.00 91 1011.5
20260902104556 23 165 0.0 0.0 0.00 0.00 0.00 91 1011.4
20260902103102 23 165 0.0 0.0 0.00 0.00 0.00 90 1011.2
20260902101553 24 165 0.0 0.0 0.00 0.00 0.00 89 1010.9
20260902100107 24 165 0.0 3.2 0.00 0.00 0.00 89 1011.1
20260902094553 24 165 0.0 3.2 0.00 0.00 0.00 90 1011.1
20260902093053 23 165 0.0 4.8 0.00 0.00 0.00 91 1011.2
20260902091607 23 165 0.0 4.8 0.00 0.00 0.00 92 1011.2
20260902090053 23 161 0.0 3.2 0.00 0.00 0.00 92 1011.3
20260902084553 24 161 0.0 4.8 0.00 0.00 0.00 91 1011.2
20260902083053 24 161 0.0 8.0 0.00 0.00 0.00 92 1011.3
20260902081553 23 145 0.0 3.2 0.00 0.00 0.00 93 1011.1
20260902080106 23 145 1.6 4.8 0.00 0.00 0.00 93 1011.3
20260902074554 23 145 0.0 3.2 0.00 0.00 0.00 92 1011.2
20260902073103 23 145 0.0 6.4 0.00 0.00 0.00 92 1011.1
20260902071609 23 145 0.0 4.8 0.00 0.00 0.00 93 1011.3
20260902070053 23 145 0.0 3.2 0.00 0.00 0.00 93 1011.4
20260902064554 23 145 0.0 6.4 0.00 0.00 0.00 94 1011.5
20260902063057 23 145 1.6 4.8 0.00 0.00 0.00 95 1011.5
20260902061607 23 145 0.0 4.8 0.00 0.00 0.00 95 1011.7
20260902060055 23 145 0.0 3.2 0.00 0.00 0.00 95 1011.9
20260902054554 23 145 0.0 0.0 0.00 0.00 0.00 95 1012.0
20260902053055 23 145 0.0 1.6 0.00 0.00 0.00 95 1011.9
20260902051554 23 145 0.0 0.0 0.00 0.00 0.00 95 1011.9
20260902050054 23 145 0.0 3.2 0.00 0.00 0.00 95 1012.1
20260902044554 23 145 0.0 0.0 0.00 0.00 0.00 95 1012.0
20260902043056 24 145 0.0 4.8 0.00 0.00 0.00 94 1011.8
20260902041554 24 145 0.0 0.0 0.00 0.00 0.00 94 1011.7
20260902040057 25 145 0.0 4.8 0.00 0.00 0.00 94 1011.7
20260902034554 25 176 0.0 6.4 0.00 0.00 0.00 94 1011.6
20260902033054 25 176 0.0 6.4 0.00 0.00 0.00 94 1011.6
20260902031555 25 207 1.6 4.8 0.00 0.00 0.00 94 1011.7
20260902030054 25 324 0.0 1.6 0.00 0.00 0.00 95 1011.6
20260902024555 25 323 0.0 0.0 0.00 0.00 0.00 95 1011.7
20260902023059 25 324 0.0 0.0 0.00 0.00 0.00 95 1011.7
20260902021558 25 323 0.0 0.0 0.00 0.00 0.00 95 1011.7
20260902020054 25 324 0.0 0.0 0.00 0.00 0.00 95 1011.5
20260902014557 25 323 0.0 0.0 0.00 0.00 0.00 95 1011.5
20260902013055 25 324 0.0 0.0 0.00 0.00 0.00 95 1011.5
20260902011600 25 323 0.0 0.0 0.00 0.00 0.00 95 1011.3
20260902010118 25 323 0.0 0.0 0.00 0.00 0.00 94 1011.2
20260902004557 25 323 0.0 0.0 0.00 0.00 0.00 94 1011.2